KLM0227 EHAM-EGKK

Flight info

Callsign KLM0227
Flight time 0h 49m
Altitude 24000
Route IDRID L980 ABNED Z344 AMRIV Q63 ARREK Y4 TEBRA
Aircraft A21N/M-SDE2E3FGHIRWXY/LB1

Departure

Time 2026-05-04 19:34
Airport Amsterdam Airport Schiphol (EHAM)

Arrival

Time 2026-05-04 20:23
Airport London Gatwick Airport (EGKK)
Time Latitude Longitude Altitude Speed Heading
2026-05-04 18:50 52.30971 4.76931 10 ft 0 kts 135°
2026-05-04 19:15 52.30971 4.76930 10 ft 0 kts 135°
2026-05-04 19:15 52.30976 4.76922 10 ft 2 kts 135°
2026-05-04 19:15 52.30987 4.76905 10 ft 2 kts 136°
2026-05-04 19:15 52.30998 4.76888 10 ft 2 kts 136°
2026-05-04 19:16 52.31009 4.76870 9 ft 2 kts 136°
2026-05-04 19:16 52.31018 4.76855 9 ft 0 kts 136°
2026-05-04 19:16 52.31027 4.76836 9 ft 2 kts 105°
2026-05-04 19:16 52.31028 4.76812 9 ft 2 kts 75°
2026-05-04 19:17 52.31020 4.76790 9 ft 0 kts 42°
2026-05-04 19:17 52.31015 4.76783 9 ft 1 kts 37°
2026-05-04 19:17 52.31014 4.76782 9 ft 0 kts 38°
2026-05-04 19:21 52.31016 4.76785 9 ft 1 kts 38°
2026-05-04 19:21 52.31027 4.76798 9 ft 3 kts 38°
2026-05-04 19:22 52.31047 4.76825 9 ft 5 kts 38°
2026-05-04 19:22 52.31080 4.76866 9 ft 8 kts 36°
2026-05-04 19:22 52.31131 4.76922 9 ft 13 kts 34°
2026-05-04 19:22 52.31182 4.76981 8 ft 18 kts 33°
2026-05-04 19:23 52.31309 4.77113 8 ft 6 kts 33°
2026-05-04 19:23 52.31349 4.77156 8 ft 7 kts 33°
2026-05-04 19:23 52.31379 4.77182 7 ft 9 kts 17°
2026-05-04 19:23 52.31470 4.77165 3 ft 12 kts 306°
2026-05-04 19:24 52.31484 4.77025 3 ft 13 kts 265°
2026-05-04 19:24 52.31477 4.76860 0 ft 16 kts 268°
2026-05-04 19:24 52.31473 4.76683 0 ft 16 kts 268°
2026-05-04 19:24 52.31469 4.76503 0 ft 17 kts 264°
2026-05-04 19:25 52.31459 4.76323 0 ft 17 kts 266°
2026-05-04 19:25 52.31454 4.76105 1 ft 21 kts 268°
2026-05-04 19:25 52.31445 4.75864 0 ft 24 kts 265°
2026-05-04 19:25 52.31438 4.75614 2 ft 25 kts 267°
2026-05-04 19:26 52.31424 4.75315 0 ft 29 kts 267°
2026-05-04 19:26 52.31414 4.74991 -2 ft 28 kts 268°
2026-05-04 19:26 52.31403 4.74668 -5 ft 28 kts 265°
2026-05-04 19:26 52.31393 4.74377 -5 ft 16 kts 266°
2026-05-04 19:27 52.31443 4.74284 -5 ft 13 kts
2026-05-04 19:27 52.31541 4.74293 -6 ft 17 kts
2026-05-04 19:27 52.31676 4.74307 -7 ft 21 kts
2026-05-04 19:27 52.31833 4.74320 -7 ft 23 kts
2026-05-04 19:28 52.31972 4.74331 -7 ft 15 kts
2026-05-04 19:28 52.32031 4.74228 -7 ft 14 kts 274°
2026-05-04 19:28 52.32038 4.74061 -7 ft 16 kts 275°
2026-05-04 19:28 52.32045 4.73868 -5 ft 18 kts 272°
2026-05-04 19:29 52.32051 4.73661 -3 ft 19 kts 273°
2026-05-04 19:29 52.32062 4.73436 -3 ft 21 kts 285°
2026-05-04 19:29 52.32165 4.73247 -5 ft 25 kts 320°
2026-05-04 19:29 52.32305 4.73049 -7 ft 28 kts 319°
2026-05-04 19:30 52.32453 4.72836 -6 ft 30 kts 320°
2026-05-04 19:30 52.32606 4.72624 -4 ft 28 kts 319°
2026-05-04 19:30 52.32737 4.72410 -3 ft 26 kts 311°
2026-05-04 19:30 52.32853 4.72198 -3 ft 25 kts 311°
2026-05-04 19:31 52.32963 4.71992 -5 ft 26 kts 311°
2026-05-04 19:31 52.33076 4.71784 -7 ft 26 kts 313°
2026-05-04 19:31 52.33147 4.71551 -7 ft 24 kts 261°
2026-05-04 19:31 52.33044 4.71362 -7 ft 23 kts 221°
2026-05-04 19:32 52.32937 4.71208 -7 ft 22 kts 221°
2026-05-04 19:32 52.32863 4.71030 -7 ft 20 kts 270°
2026-05-04 19:32 52.32912 4.70887 -7 ft 11 kts 348°
2026-05-04 19:32 52.32974 4.70894 -7 ft 0 kts
2026-05-04 19:33 52.32978 4.70894 -7 ft 1 kts
2026-05-04 19:33 52.33174 4.70913 -7 ft 65 kts
2026-05-04 19:33 52.33761 4.70965 -6 ft 122 kts
2026-05-04 19:33 52.34736 4.71052 22 ft 168 kts
2026-05-04 19:34 52.35762 4.71141 677 ft 161 kts
2026-05-04 19:34 52.36807 4.71232 1169 ft 171 kts
2026-05-04 19:34 52.37868 4.71340 1777 ft 174 kts
2026-05-04 19:34 52.39010 4.71455 2182 ft 182 kts
2026-05-04 19:35 52.40174 4.71573 2470 ft 195 kts
2026-05-04 19:35 52.41430 4.71696 2743 ft 209 kts
2026-05-04 19:35 52.42810 4.71605 2923 ft 231 kts 346°
2026-05-04 19:35 52.44131 4.70453 3231 ft 250 kts 321°
2026-05-04 19:36 52.45271 4.68597 3709 ft 259 kts 315°
2026-05-04 19:36 52.46293 4.66441 4343 ft 265 kts 298°
2026-05-04 19:36 52.46770 4.63660 5068 ft 269 kts 276°
2026-05-04 19:36 52.46796 4.60829 5801 ft 270 kts 271°
2026-05-04 19:37 52.46769 4.57831 6525 ft 272 kts 271°
2026-05-04 19:37 52.46593 4.55010 7175 ft 276 kts 254°
2026-05-04 19:37 52.45738 4.52492 7780 ft 281 kts 229°
2026-05-04 19:37 52.44331 4.50716 8463 ft 283 kts 213°
2026-05-04 19:38 52.42803 4.49031 9121 ft 285 kts 223°
2026-05-04 19:38 52.41597 4.46774 9758 ft 285 kts 239°
2026-05-04 19:38 52.40686 4.44199 10369 ft 287 kts 243°
2026-05-04 19:38 52.39768 4.41346 10713 ft 300 kts 244°
2026-05-04 19:39 52.38789 4.38259 10982 ft 316 kts 244°
2026-05-04 19:39 52.37750 4.35013 11285 ft 331 kts 243°
2026-05-04 19:39 52.36652 4.31621 11551 ft 345 kts 243°
2026-05-04 19:39 52.35500 4.28092 11882 ft 357 kts 242°
2026-05-04 19:40 52.34400 4.24732 12374 ft 361 kts 242°
2026-05-04 19:40 52.33254 4.21241 12948 ft 364 kts 242°
2026-05-04 19:40 52.32053 4.17721 13497 ft 367 kts 240°
2026-05-04 19:40 52.30716 4.14307 14013 ft 371 kts 236°
2026-05-04 19:41 52.29176 4.10909 14553 ft 374 kts 233°
2026-05-04 19:41 52.27542 4.07482 15132 ft 376 kts 232°
2026-05-04 19:41 52.25966 4.04192 15657 ft 378 kts 232°
2026-05-04 19:41 52.24347 4.00815 16163 ft 380 kts 232°
2026-05-04 19:42 52.22712 3.97405 16676 ft 382 kts 232°
2026-05-04 19:42 52.21090 3.94025 17176 ft 384 kts 232°
2026-05-04 19:42 52.19412 3.90531 17650 ft 387 kts 232°
2026-05-04 19:42 52.17735 3.87045 18111 ft 390 kts 232°
2026-05-04 19:43 52.16068 3.83584 18566 ft 392 kts 232°
2026-05-04 19:43 52.14356 3.80033 19010 ft 394 kts 232°
2026-05-04 19:43 52.12673 3.76548 19444 ft 396 kts 232°
2026-05-04 19:43 52.10971 3.73028 19873 ft 398 kts 232°
2026-05-04 19:44 52.09256 3.69482 20297 ft 399 kts 232°
2026-05-04 19:44 52.07531 3.65923 20697 ft 401 kts 232°
2026-05-04 19:44 52.05879 3.62518 21101 ft 403 kts 232°
2026-05-04 19:44 52.04245 3.59157 21482 ft 404 kts 232°
2026-05-04 19:45 52.02573 3.55719 21856 ft 406 kts 232°
2026-05-04 19:45 52.00887 3.52258 22221 ft 408 kts 232°
2026-05-04 19:45 51.99243 3.48821 22548 ft 410 kts 234°
2026-05-04 19:45 51.97626 3.45246 22890 ft 411 kts 235°
2026-05-04 19:46 51.96059 3.41771 23214 ft 413 kts 235°
2026-05-04 19:46 51.94416 3.38131 23558 ft 414 kts 235°
2026-05-04 19:46 51.92786 3.34526 23872 ft 416 kts 234°
2026-05-04 19:46 51.91190 3.31002 23995 ft 417 kts 234°
2026-05-04 19:47 51.89580 3.27455 23997 ft 417 kts 234°
2026-05-04 19:47 51.87847 3.23644 23995 ft 417 kts 234°
2026-05-04 19:47 51.86251 3.19992 23996 ft 418 kts 236°
2026-05-04 19:47 51.84750 3.16206 24000 ft 417 kts 239°
2026-05-04 19:48 51.83403 3.12421 24003 ft 417 kts 242°
2026-05-04 19:48 51.82099 3.08359 24007 ft 418 kts 243°
2026-05-04 19:48 51.80861 3.04422 24007 ft 418 kts 243°
2026-05-04 19:48 51.79619 3.00476 24008 ft 418 kts 243°
2026-05-04 19:49 51.78338 2.96422 24009 ft 417 kts 243°
2026-05-04 19:49 51.77070 2.92417 24006 ft 417 kts 243°
2026-05-04 19:49 51.75804 2.88430 24006 ft 417 kts 243°
2026-05-04 19:49 51.74537 2.84451 24006 ft 417 kts 243°
2026-05-04 19:50 51.73262 2.80455 24007 ft 416 kts 243°
2026-05-04 19:50 51.71986 2.76463 24007 ft 416 kts 243°
2026-05-04 19:50 51.70739 2.72525 24006 ft 416 kts 245°
2026-05-04 19:50 51.69603 2.68196 24005 ft 416 kts 250°
2026-05-04 19:51 51.68735 2.63685 24004 ft 417 kts 256°
2026-05-04 19:51 51.68153 2.59092 24002 ft 417 kts 261°
2026-05-04 19:51 51.67719 2.54403 24002 ft 417 kts 262°
2026-05-04 19:51 51.67339 2.49988 24002 ft 417 kts 262°
2026-05-04 19:52 51.66972 2.45812 24002 ft 417 kts 262°
2026-05-04 19:52 51.66599 2.41658 24004 ft 417 kts 262°
2026-05-04 19:52 51.66189 2.37155 24006 ft 417 kts 262°
2026-05-04 19:52 51.65782 2.32722 24008 ft 417 kts 261°
2026-05-04 19:53 51.65361 2.28177 24007 ft 417 kts 261°
2026-05-04 19:53 51.64931 2.23553 24013 ft 416 kts 261°
2026-05-04 19:53 51.64498 2.18925 24015 ft 416 kts 261°
2026-05-04 19:53 51.64085 2.14537 23810 ft 417 kts 261°
2026-05-04 19:54 51.63663 2.10052 23347 ft 414 kts 261°
2026-05-04 19:54 51.63251 2.05608 22860 ft 410 kts 261°
2026-05-04 19:54 51.62821 2.00929 22339 ft 407 kts 261°
2026-05-04 19:54 51.62427 1.96667 21854 ft 404 kts 261°
2026-05-04 19:55 51.62010 1.92195 21343 ft 400 kts 261°
2026-05-04 19:55 51.61567 1.87906 20836 ft 397 kts 256°
2026-05-04 19:55 51.60714 1.83897 20340 ft 393 kts 245°
2026-05-04 19:55 51.59472 1.80436 19865 ft 390 kts 234°
2026-05-04 19:56 51.57921 1.77382 19418 ft 387 kts 229°
2026-05-04 19:56 51.56300 1.74480 18969 ft 385 kts 227°
2026-05-04 19:56 51.54549 1.71382 18486 ft 383 kts 227°
2026-05-04 19:56 51.52742 1.68153 17984 ft 381 kts 228°
2026-05-04 19:57 51.50992 1.64997 17485 ft 379 kts 229°
2026-05-04 19:57 51.49424 1.61628 16991 ft 378 kts 237°
2026-05-04 19:57 51.48138 1.57872 16483 ft 377 kts 245°
2026-05-04 19:57 51.47153 1.53906 15988 ft 376 kts 250°
2026-05-04 19:58 51.46309 1.50158 15517 ft 375 kts 251°
2026-05-04 19:58 51.45449 1.46311 15037 ft 373 kts 251°
2026-05-04 19:58 51.44590 1.42524 14572 ft 371 kts 250°
2026-05-04 19:58 51.43479 1.38804 14128 ft 372 kts 238°
2026-05-04 19:59 51.41908 1.35731 14003 ft 374 kts 225°
2026-05-04 19:59 51.39764 1.32949 14007 ft 376 kts 216°
2026-05-04 19:59 51.37631 1.30456 14007 ft 376 kts 215°
2026-05-04 19:59 51.35555 1.28059 14006 ft 376 kts 215°
2026-05-04 20:00 51.33454 1.25622 14004 ft 376 kts 216°
2026-05-04 20:00 51.31525 1.23373 14001 ft 375 kts 216°
2026-05-04 20:00 51.29551 1.21061 14003 ft 375 kts 216°
2026-05-04 20:00 51.27499 1.18649 14000 ft 375 kts 216°
2026-05-04 20:01 51.25555 1.16365 13998 ft 375 kts 216°
2026-05-04 20:01 51.23467 1.13913 13999 ft 375 kts 216°
2026-05-04 20:01 51.21327 1.11399 13998 ft 375 kts 216°
2026-05-04 20:01 51.19167 1.08864 13996 ft 375 kts 216°
2026-05-04 20:02 51.17097 1.06439 13995 ft 375 kts 216°
2026-05-04 20:02 51.15001 1.03985 13993 ft 375 kts 216°
2026-05-04 20:02 51.12952 1.01591 13982 ft 375 kts 216°
2026-05-04 20:02 51.10826 0.99109 13982 ft 375 kts 216°
2026-05-04 20:03 51.08856 0.96811 13882 ft 376 kts 216°
2026-05-04 20:03 51.06965 0.94442 13326 ft 378 kts 223°
2026-05-04 20:03 51.05349 0.91516 12800 ft 377 kts 234°
2026-05-04 20:03 51.04140 0.88195 12311 ft 375 kts 244°
2026-05-04 20:04 51.03078 0.84603 12006 ft 367 kts 245°
2026-05-04 20:04 51.02045 0.80992 11838 ft 354 kts 245°
2026-05-04 20:04 51.01046 0.77540 11707 ft 341 kts 245°
2026-05-04 20:04 50.99996 0.73982 11553 ft 328 kts 245°
2026-05-04 20:05 50.99075 0.70896 11410 ft 317 kts 245°
2026-05-04 20:05 50.98191 0.67949 11279 ft 306 kts 245°
2026-05-04 20:05 50.97301 0.64989 10921 ft 304 kts 245°
2026-05-04 20:05 50.96468 0.62221 10573 ft 298 kts 245°
2026-05-04 20:06 50.95622 0.59412 10238 ft 293 kts 245°
2026-05-04 20:06 50.94809 0.56719 9907 ft 291 kts 245°
2026-05-04 20:06 50.93941 0.53845 9557 ft 289 kts 245°
2026-05-04 20:06 50.93103 0.51079 9222 ft 287 kts 245°
2026-05-04 20:07 50.92325 0.48511 8906 ft 285 kts 245°
2026-05-04 20:07 50.91598 0.45877 8563 ft 284 kts 255°
2026-05-04 20:07 50.91431 0.42995 8227 ft 281 kts 278°
2026-05-04 20:07 50.91850 0.40222 7926 ft 277 kts 288°
2026-05-04 20:08 50.92398 0.37495 7615 ft 275 kts 289°
2026-05-04 20:08 50.92924 0.34886 7311 ft 274 kts 288°
2026-05-04 20:08 50.93475 0.32047 7154 ft 264 kts 287°
2026-05-04 20:08 50.93963 0.29446 7075 ft 253 kts 287°
2026-05-04 20:09 50.94472 0.26701 6981 ft 253 kts 288°
2026-05-04 20:09 50.95002 0.24170 6957 ft 252 kts 290°
2026-05-04 20:09 50.95528 0.21796 6972 ft 252 kts 290°
2026-05-04 20:09 50.96075 0.19345 6982 ft 253 kts 290°
2026-05-04 20:10 50.96650 0.16763 6961 ft 252 kts 290°
2026-05-04 20:10 50.97190 0.14304 6983 ft 254 kts 288°
2026-05-04 20:10 50.97435 0.11681 7016 ft 274 kts 271°
2026-05-04 20:10 50.97383 0.08928 6840 ft 278 kts 267°
2026-05-04 20:11 50.97262 0.06117 6596 ft 277 kts 266°
2026-05-04 20:11 50.97128 0.03366 6369 ft 276 kts 266°
2026-05-04 20:11 50.96989 0.00578 6141 ft 275 kts 266°
2026-05-04 20:11 50.96848 -0.02159 5913 ft 275 kts 266°
2026-05-04 20:12 50.96698 -0.05028 5671 ft 274 kts 266°
2026-05-04 20:12 50.96546 -0.07860 5435 ft 273 kts 266°
2026-05-04 20:12 50.96390 -0.10703 5195 ft 268 kts 266°
2026-05-04 20:12 50.96241 -0.13342 4965 ft 263 kts 266°
2026-05-04 20:13 50.96082 -0.16086 4720 ft 258 kts 266°
2026-05-04 20:13 50.95966 -0.18912 4460 ft 252 kts 276°
2026-05-04 20:13 50.96389 -0.21431 4214 ft 244 kts 294°
2026-05-04 20:13 50.96928 -0.23756 3978 ft 241 kts 292°
2026-05-04 20:14 50.97416 -0.26002 3750 ft 238 kts 291°
2026-05-04 20:14 50.97947 -0.28483 3495 ft 234 kts 291°
2026-05-04 20:14 50.98442 -0.30825 3251 ft 231 kts 291°
2026-05-04 20:14 50.98937 -0.33192 3077 ft 223 kts 291°
2026-05-04 20:15 50.99398 -0.35444 2976 ft 208 kts 291°
2026-05-04 20:15 50.99829 -0.37587 2953 ft 192 kts 291°
2026-05-04 20:15 51.00214 -0.39513 2968 ft 191 kts 291°
2026-05-04 20:15 51.00616 -0.41530 2977 ft 192 kts 291°
2026-05-04 20:16 51.01020 -0.43555 2980 ft 192 kts 291°
2026-05-04 20:16 51.01440 -0.45666 2978 ft 192 kts 291°
2026-05-04 20:16 51.01888 -0.47561 2968 ft 189 kts 305°
2026-05-04 20:16 51.02793 -0.48646 2924 ft 170 kts 353°
2026-05-04 20:17 51.03886 -0.48435 2972 ft 165 kts 25°
2026-05-04 20:17 51.04756 -0.47510 2987 ft 164 kts 38°
2026-05-04 20:17 51.05584 -0.46477 2983 ft 164 kts 40°
2026-05-04 20:17 51.06394 -0.45383 2983 ft 165 kts 41°
2026-05-04 20:18 51.07187 -0.44295 2981 ft 165 kts 41°
2026-05-04 20:18 51.07988 -0.43191 2983 ft 165 kts 41°
2026-05-04 20:18 51.08783 -0.42096 2969 ft 166 kts 41°
2026-05-04 20:18 51.09575 -0.41006 2869 ft 162 kts 41°
2026-05-04 20:19 51.10337 -0.39957 2704 ft 155 kts 41°
2026-05-04 20:19 51.11077 -0.38941 2529 ft 153 kts 41°
2026-05-04 20:19 51.11822 -0.37918 2344 ft 152 kts 41°
2026-05-04 20:20 51.13115 -0.35526 1992 ft 151 kts 81°
2026-05-04 20:20 51.13092 -0.34109 2076 ft 146 kts 91°
2026-05-04 20:20 51.13036 -0.32688 1869 ft 142 kts 85°
2026-05-04 20:20 51.13101 -0.31329 1599 ft 139 kts 78°
2026-05-04 20:21 51.13251 -0.30024 1399 ft 139 kts 76°
2026-05-04 20:21 51.13428 -0.28735 1248 ft 139 kts 75°
2026-05-04 20:21 51.13837 -0.26159 935 ft 138 kts 76°
2026-05-04 20:22 51.14013 -0.24903 759 ft 138 kts 75°
2026-05-04 20:22 51.14186 -0.23640 591 ft 138 kts 77°
2026-05-04 20:22 51.14358 -0.22360 437 ft 137 kts 76°
2026-05-04 20:22 51.14547 -0.21001 279 ft 137 kts 77°
2026-05-04 20:23 51.14724 -0.19691 193 ft 125 kts 77°
2026-05-04 20:23 51.14863 -0.18689 196 ft 79 kts 78°
2026-05-04 20:23 51.14948 -0.18091 196 ft 41 kts 72°
2026-05-04 20:23 51.15031 -0.17845 196 ft 10 kts 53°
2026-05-04 20:24 51.15070 -0.17771 196 ft 5 kts 41°
2026-05-04 20:24 51.15107 -0.17755 195 ft 7 kts 358°
2026-05-04 20:24 51.15156 -0.17747 194 ft 9 kts 28°
2026-05-04 20:24 51.15188 -0.17656 192 ft 11 kts 78°
2026-05-04 20:25 51.15203 -0.17534 192 ft 12 kts 78°
2026-05-04 20:25 51.15220 -0.17407 189 ft 15 kts 77°
2026-05-04 20:25 51.15260 -0.17346 186 ft 2 kts
2026-05-04 20:25 51.15275 -0.17352 186 ft 2 kts 336°
2026-05-04 20:26 51.15295 -0.17367 187 ft 5 kts 342°
2026-05-04 20:26 51.15355 -0.17333 187 ft 14 kts 59°
2026-05-04 20:26 51.15390 -0.17199 185 ft 15 kts 64°
2026-05-04 20:26 51.15420 -0.17053 185 ft 16 kts 78°
2026-05-04 20:27 51.15442 -0.16896 187 ft 16 kts 78°
2026-05-04 20:27 51.15451 -0.16746 191 ft 12 kts 88°
2026-05-04 20:27 51.15459 -0.16645 196 ft 8 kts 79°
2026-05-04 20:27 51.15469 -0.16572 197 ft 7 kts 76°
2026-05-04 20:28 51.15480 -0.16512 199 ft 5 kts 74°
2026-05-04 20:28 51.15488 -0.16463 200 ft 3 kts 77°
2026-05-04 20:28 51.15490 -0.16448 201 ft 0 kts 77°
2026-05-04 20:28 51.15490 -0.16445 201 ft 0 kts 77°
2026-05-04 20:29 51.15491 -0.16443 201 ft 0 kts 77°
2026-05-04 20:29 51.15490 -0.16448 201 ft 1 kts 77°
2026-05-04 20:29 51.15488 -0.16459 200 ft 0 kts 77°